Weather History for Andrews, NC

Change the Weather History Date:

Thursday, May 23, 2013

  Actual Average (KTYS) Record (KTYS)
Temperature  
Mean Temperature 70 °F 69 °F  
Max Temperature 79 °F 80 °F 92 °F (1903)
Min Temperature 60 °F 58 °F 40 °F (1889)
Degree Days  
Heating Degree Days 0 1  
Month to date heating degree days 52  
Since 1 July heating degree days 3627  
Cooling Degree Days 4 5  
Month to date cooling degree days 76  
Year to date cooling degree days 113  
Growing Degree Days 20 (Base 50)    
Moisture  
Dew Point 59 °F    
Average Humidity 74    
Maximum Humidity 100    
Minimum Humidity 48    
Precipitation  
Precipitation 0.02 in 0.13 in 2.30 in (1979)
Month to date precipitation 3.42  
Year to date precipitation 20.35  
Snow  
Snow 0.00 in 0.00 in - ()
Month to date snowfall 0.0  
Since 1 July snowfall 6.5  
Snow Depth -    
Sea Level Pressure  
Sea Level Pressure 29.98 in    
Wind  
Wind Speed 4 mph (West)    
Max Wind Speed 16 mph    
Max Gust Speed 22 mph    
Visibility 9 miles    
Events Fog , Rain    
T = Trace of Precipitation, MM = Missing Value Source: NWS Daily Summary

Daily Weather History Graph

Daily Weather History Graph

Search for Another Location

Airport:

Trip Planner

Search our weather history database for the weather conditions in past years. The results will help you decide how hot, cold, wet, or windy it might be!

Date:

Astronomy

May. 23, 2013 Rise Set
Actual Time 6:26 AM EDT 8:38 PM EDT
Civil Twilight 5:57 AM EDT 9:07 PM EDT
Nautical Twilight 5:22 AM EDT 9:42 PM EDT
Astronomical Twilight 4:44 AM EDT 10:21 PM EDT
Moon 7:12 PM EDT (5/23) 5:06 AM EDT (5/23)
Length of Visible Light 15h 10m
Length of Day
14h 12m
Waxing Gibbous, 97% of the Moon is Illuminated
May 23
Waxing Gibbous
May 25
Full
May 31
Last Quarter
Jun 8
New
Jun 16
First Quarter

Hourly Weather History & Observations

Time (EDT) Temp. Dew Point Humidity Pressure Visibility Wind Dir Wind Speed Gust Speed Precip Events Conditions
12:15 AM 61.0 °F 60.4 °F 98% 29.98 in 10.0 mi Calm Calm - N/A   Mostly Cloudy
12:35 AM 61.2 °F 60.4 °F 97% 29.97 in 7.0 mi Calm Calm - N/A   Overcast
12:55 AM 61.0 °F 59.7 °F 96% 29.97 in 10.0 mi Calm Calm - N/A   Mostly Cloudy
1:15 AM 60.8 °F 59.9 °F 97% 29.97 in 10.0 mi Calm Calm - N/A   Scattered Clouds
1:35 AM 60.3 °F 59.5 °F 97% 29.96 in 7.0 mi Calm Calm - N/A   Overcast
1:55 AM 60.4 °F 59.9 °F 98% 29.96 in 7.0 mi Calm Calm - N/A   Light Drizzle
6:35 AM 61.0 °F 60.8 °F 99% 29.99 in 4.0 mi Calm Calm - N/A   Overcast
6:55 AM 61.0 °F 60.8 °F 99% 29.99 in 2.0 mi Calm Calm - N/A   Overcast
7:15 AM 61.0 °F 60.8 °F 99% 30.00 in 1.8 mi Calm Calm - N/A   Overcast
7:35 AM 61.0 °F 60.8 °F 99% 30.00 in 0.5 mi Calm Calm - N/A Fog Fog
7:55 AM 61.2 °F 61.2 °F 100% 30.00 in 0.2 mi Calm Calm - N/A Fog Fog
8:15 AM 61.3 °F 61.3 °F 100% 30.00 in 0.8 mi Calm Calm - N/A   Overcast
8:35 AM 61.7 °F 61.3 °F 99% 30.01 in 2.5 mi Calm Calm - N/A   Overcast
8:55 AM 62.2 °F 62.1 °F 99% 30.01 in 4.0 mi Calm Calm - N/A   Overcast
9:15 AM 64.4 °F 62.8 °F 94% 30.01 in 7.0 mi Calm Calm - N/A   Overcast
9:35 AM 64.8 °F 62.4 °F 92% 30.01 in 10.0 mi Calm Calm - N/A   Overcast
9:55 AM 66.4 °F 63.1 °F 89% 30.01 in 10.0 mi Calm Calm - N/A   Scattered Clouds
10:15 AM 68.2 °F 62.8 °F 83% 30.00 in 10.0 mi Calm Calm - N/A   Scattered Clouds
10:35 AM 69.8 °F 61.9 °F 76% 30.00 in 10.0 mi South 3.5 mph - N/A   Scattered Clouds
10:55 AM 70.9 °F 60.4 °F 69% 30.00 in 10.0 mi Calm Calm - N/A   Mostly Cloudy
11:15 AM 72.1 °F 58.3 °F 62% 30.00 in 10.0 mi NW 5.8 mph - N/A   Overcast
11:35 AM 72.9 °F 58.3 °F 60% 30.00 in 10.0 mi WSW 5.8 mph - N/A   Overcast
11:55 AM 74.5 °F 54.0 °F 49% 29.99 in 10.0 mi West 8.1 mph - N/A   Mostly Cloudy
12:15 PM 75.2 °F 55.0 °F 49% 30.00 in 10.0 mi West 8.1 mph - N/A   Mostly Cloudy
12:35 PM 75.6 °F 58.3 °F 55% 29.99 in 10.0 mi WSW 9.2 mph - N/A   Overcast
12:55 PM 75.9 °F 57.9 °F 54% 29.98 in 10.0 mi SW 10.4 mph - N/A   Unknown
1:15 PM 76.8 °F 58.8 °F 54% 29.97 in 10.0 mi WSW 8.1 mph - N/A   Scattered Clouds
1:35 PM 77.0 °F 59.0 °F 54% 29.97 in 10.0 mi West 13.8 mph 18.4 mph N/A   Mostly Cloudy
1:55 PM 77.5 °F 58.3 °F 51% 29.97 in 10.0 mi WSW 11.5 mph 16.1 mph N/A   Unknown
2:15 PM 77.7 °F 58.6 °F 52% 29.97 in 10.0 mi WSW 13.8 mph - N/A   Unknown
2:35 PM 77.7 °F 58.8 °F 52% 29.97 in 10.0 mi WSW 9.2 mph - N/A   Unknown
2:55 PM 77.7 °F 58.1 °F 51% 29.97 in 10.0 mi SSW 9.2 mph - N/A   Unknown
3:15 PM 79.0 °F 58.1 °F 49% 29.96 in 10.0 mi West 13.8 mph 18.4 mph N/A   Unknown
3:35 PM 79.0 °F 58.5 °F 49% 29.96 in 10.0 mi WSW 13.8 mph 19.6 mph N/A   Unknown
3:55 PM 77.5 °F 57.6 °F 50% 29.96 in 10.0 mi WSW 16.1 mph 21.9 mph N/A   Unknown
4:15 PM 78.6 °F 57.2 °F 48% 29.95 in 10.0 mi WSW 11.5 mph 20.7 mph N/A   Unknown
4:35 PM 74.7 °F 57.2 °F 54% 29.96 in 10.0 mi West 13.8 mph - N/A   Unknown
4:55 PM 71.1 °F 55.6 °F 58% 29.96 in 10.0 mi West 11.5 mph 18.4 mph N/A   Light Drizzle
5:15 PM 68.9 °F 58.1 °F 68% 29.97 in 10.0 mi SW 13.8 mph 17.3 mph N/A   Unknown
5:35 PM 71.6 °F 59.4 °F 65% 29.96 in 10.0 mi SW 5.8 mph - N/A   Unknown
5:55 PM 72.7 °F 59.9 °F 64% 29.96 in 10.0 mi WSW 6.9 mph - N/A   Unknown
6:15 PM 73.2 °F 60.1 °F 63% 29.96 in 10.0 mi West 6.9 mph - N/A   Unknown
6:35 PM 71.8 °F 60.3 °F 67% 29.96 in 10.0 mi West 6.9 mph - N/A   Unknown
6:55 PM 69.6 °F 60.1 °F 72% 29.96 in 10.0 mi NW 12.7 mph - N/A Rain Light Rain
7:15 PM 65.3 °F 60.6 °F 85% 29.96 in 10.0 mi NNW 8.1 mph - N/A   Unknown
7:35 PM 66.7 °F 58.6 °F 75% 29.97 in 10.0 mi WNW 8.1 mph - N/A   Unknown
7:55 PM 67.3 °F 55.4 °F 66% 29.97 in 10.0 mi West 8.1 mph - N/A   Unknown
8:15 PM 67.8 °F 53.4 °F 60% 29.98 in 10.0 mi West 9.2 mph 16.1 mph N/A   Unknown
8:35 PM 66.9 °F 53.2 °F 61% 29.99 in 10.0 mi WNW 6.9 mph - N/A   Unknown
8:55 PM 63.0 °F 55.2 °F 76% 29.99 in 10.0 mi NW 6.9 mph - N/A   Unknown
9:15 PM 60.8 °F 55.9 °F 84% 29.99 in 10.0 mi NNW 8.1 mph - N/A   Unknown
9:35 PM 61.2 °F 55.8 °F 82% 30.00 in 10.0 mi North 3.5 mph - N/A   Unknown
9:55 PM 60.4 °F 55.9 °F 85% 30.00 in 10.0 mi Calm Calm - N/A   Unknown
10:15 PM 60.3 °F 55.9 °F 86% 30.01 in 10.0 mi Calm Calm - N/A   Unknown
10:35 PM 60.3 °F 56.3 °F 87% 30.01 in 10.0 mi Calm Calm - N/A   Unknown
10:55 PM 60.8 °F 56.3 °F 85% 30.02 in 10.0 mi Calm Calm - N/A   Unknown
11:15 PM 62.2 °F 54.9 °F 77% 30.01 in 10.0 mi NNW 3.5 mph - N/A   Unknown
11:35 PM 61.2 °F 55.4 °F 81% 30.02 in 10.0 mi NNW 4.6 mph - N/A   Unknown
11:55 PM 63.5 °F 53.2 °F 69% 30.03 in 10.0 mi NNE 8.1 mph - N/A   Unknown